Effective Sunday, March 17, 2024, the National Weather Service National Data Buoy Center will discontinue its Dial-A-Buoy Interactive Voice Response system. For more information, see Service Change Notice 24-06 (PDF).

Station 51003 (LLNR 28005.7) - WESTERN HAWAII - 205 NM SW of Honolulu, HI Image indicating link to RSS feed of recent meteorological observations for station 51003


Conditions at 51003 as of
(7:30 am HAST)
1730 GMT on 02/29/2024:
     

Click on the graph icon in the table below to see a time series plot of the last five days of that observation.

5-day plot - Wind Direction Wind Direction (WDIR): N ( 10 deg true )
5-day plot - Wind Speed Wind Speed (WSPD): 3.9 kts
5-day plot - Wind Gust Wind Gust (GST): 9.7 kts
5-day plot - Atmospheric Pressure Atmospheric Pressure (PRES):30.07 in
5-day plot - Air Temperature Air Temperature (ATMP): 73.0 °F
5-day plot - Dew Point Dew Point (DEWP): 65.5 °F
5-day plot - Wind Speed at 10 Meters Wind Speed at 10 meters (WSPD10M): 3.9 kts
5-day plot - Wind Speed at 20 Meters Wind Speed at 20 meters (WSPD20M): 3.9 kts
5-day plot -  Wind Speed, Wind Gust and Atmospheric Pressure Combined plot of Wind Speed, Gust, and Air Pressure
Supplemental Measurements
Highest 1-minute Wind Speed
Time (HAST)5-day plot - 1-Minute Wind Speed WSPD 5-day plot - 1-Minute Wind Direction WDIR
7:21 am 7.8 kts-
Previous observations
TIME
(HAST)
5-day plot - Wind Direction
WDIR
 
5-day plot - Wind Speed
WSPD
kts
5-day plot - Wind Gust
GST
kts
5-day plot - Wave Height
WVHT
ft
5-day plot - Dominant Wave Period
DPD
sec
5-day plot - Average Wave Period
APD
sec
5-day plot - Mean Wave Direction
MWD
 
5-day plot - Atmospheric Pressure
PRES
in
5-day plot - Pressure Tendency
PTDY
in
5-day plot - Air Temperature
ATMP
°F
5-day plot - Water Temperature
WTMP
°F
5-day plot - Dew Point
DEWP
°F
5-day plot - Salinity
SAL
psu
5-day plot - Visibility
VIS
nmi
5-day plot - Tide (above MLLW)
TIDE
ft
2024-02-29 07:20 amENE 9.7 17.5 5.9 96.1 E30.07- 74.7- 65.8---
2024-02-29 07:10 am E 7.8 11.7 5.9-6.1 E30.07- 74.5- 64.9---
2024-02-29 07:00 amENE 7.8 11.7----30.06+0.04 74.7- 66.7---
2024-02-29 06:50 amENE 7.8 11.7 6.2 86.3 E30.06- 74.5- 66.4---
2024-02-29 06:40 amENE 9.7 11.7----30.06- 74.5- 66.6---
2024-02-29 06:30 amENE 9.7 13.6----30.05- 74.8- 66.6---
2024-02-29 06:20 am E 7.8 11.7 6.2 86.1 E30.05- 74.8- 64.4---
2024-02-29 06:10 am E 7.8 9.7 6.2-6.1 E30.04- 74.8- 64.2---
2024-02-29 06:00 am E 9.7 11.7----30.04+0.00 74.7- 64.2---
2024-02-29 05:50 am E 9.7 11.7 6.6 86.3ESE30.04- 74.5- 66.2---
2024-02-29 05:40 amENE 9.7 13.6----30.03- 74.7- 66.6---
2024-02-29 05:30 amENE 9.7 13.6----30.03- 74.5- 66.2---
2024-02-29 05:20 amENE 9.7 13.6 6.2 86.2ESE30.03- 74.5- 66.7---
2024-02-29 05:10 amENE 11.7 13.6 6.2-6.2ESE30.03- 74.5- 66.9---
2024-02-29 05:00 amENE 11.7 15.5----30.03-0.02 74.5- 66.4---
2024-02-29 04:50 amENE 11.7 15.5 6.9 86.2 E30.03- 74.7- 66.7---
2024-02-29 04:40 amENE 11.7 15.5----30.03- 74.7- 66.6---
2024-02-29 04:30 amENE 11.7 15.5----30.03- 74.5- 66.6---
2024-02-29 04:20 amENE 11.7 13.6 6.6 86.2 E30.02- 74.8- 66.2---
2024-02-29 04:10 amENE 11.7 13.6 6.6-6.2 E30.02- 74.8- 65.5---
2024-02-29 04:00 amENE 11.7 15.5----30.02-0.04 74.8- 65.5---
2024-02-29 03:50 amENE 11.7 15.5 6.2 85.9 E30.02- 74.8- 65.7---
2024-02-29 03:40 amENE 11.7 15.5----30.03- 75.0- 66.0---
2024-02-29 03:30 amENE 11.7 15.5----30.03- 75.0- 65.7---
2024-02-29 03:20 amENE 13.6 17.5 6.9 86.1 E30.03- 75.0- 66.2---
2024-02-29 03:10 amENE 13.6 17.5 6.9-6.1 E30.03- 75.0- 65.5---
2024-02-29 03:00 amENE 13.6 17.5----30.03-0.05 75.2- 66.6---
2024-02-29 02:50 amENE 13.6 17.5 6.6 86.0 E30.04- 75.2- 66.4---
2024-02-29 02:40 amENE 15.5 19.4 6.6-6.0 E30.05- 75.0- 65.5---
2024-02-29 02:30 amENE 13.6 17.5----30.04- 75.2- 66.0---
2024-02-29 02:20 amENE 13.6 17.5 6.9 86.1 E30.05- 75.2- 65.7---
2024-02-29 02:10 amENE 15.5 19.4----30.05- 75.2- 65.3---
2024-02-29 02:00 amENE 15.5 19.4----30.05-0.04 75.2- 65.7---
2024-02-29 01:50 amENE 15.5 19.4 7.2 86.1 E30.05- 75.2- 65.7---
2024-02-29 01:40 amENE 15.5 19.4----30.06- 75.4- 66.0---
2024-02-29 01:30 amENE 15.5 21.4----30.06- 75.4- 66.0---
2024-02-29 01:20 am E 17.5 21.4 6.6 85.8 E30.06- 75.6- 66.0---
2024-02-29 01:10 am E 17.5 21.4 6.6-5.8 E30.06- 75.6- 66.4---
2024-02-29 01:00 am E 17.5 21.4----30.06-0.03 75.6- 66.0---
2024-02-29 12:50 am E 17.5 21.4 6.9 86.1 E30.06- 75.6- 65.7---
2024-02-29 12:40 am E 17.5 21.4----30.07- 75.6- 65.7---
2024-02-29 12:30 am E 19.4 23.3----30.07- 75.6- 65.5---
2024-02-29 12:20 am E 17.5 23.3 6.2 85.9ESE30.07- 75.7- 65.7---
2024-02-29 12:10 am E 17.5 21.4 6.2-5.9ESE30.08- 75.7- 65.3---
2024-02-29 12:00 am E 17.5 21.4----30.09+0.00 75.7- 65.1---
2024-02-28 11:50 pm E 15.5 21.4 6.6 86.1 E30.08- 75.7- 65.1---
2024-02-28 11:40 pm E 17.5 21.4----30.09- 75.7- 65.3---
2024-02-28 11:30 pm E 17.5 21.4----30.09- 75.7- 64.9---
2024-02-28 11:20 pm E 15.5 19.4 6.9 86.1 E30.09- 75.7- 65.1---
2024-02-28 11:10 pmENE 15.5 19.4 6.9-6.1 E30.09- 75.6- 65.7---
2024-02-28 11:00 pmENE 13.6 17.5----30.09+0.02 75.6- 66.6---
2024-02-28 10:50 pm E 13.6 17.5 6.6 86.1 E30.09- 75.2- 65.7---
2024-02-28 10:40 pm E 15.5 19.4 6.6-6.1 E30.09- 75.2- 65.3---
2024-02-28 10:30 pm E 15.5 19.4----30.09- 75.4- 65.3---
2024-02-28 10:20 pm E 15.5 19.4 6.2 86.2 E30.09- 75.2- 64.8---
2024-02-28 10:10 pm E 13.6 17.5 6.2-6.2 E30.09- 75.2- 65.3---
2024-02-28 10:00 pm E 13.6 17.5----30.09+0.04 75.2- 65.8---
2024-02-28 09:50 pm E 13.6 17.5 7.2 86.3 E30.09- 75.4- 65.8---
2024-02-28 09:40 pm E 15.5 17.5----30.09- 75.4- 65.1---
2024-02-28 09:30 pm E 13.6 17.5----30.09- 75.0- 65.8---
2024-02-28 09:20 pm E 11.7 15.5 7.2 86.3 E30.09- 75.0- 66.4---
2024-02-28 09:10 pm E 13.6 17.5 7.2-6.3 E30.09- 75.0- 66.2---
2024-02-28 09:00 pm E 13.6 17.5----30.09+0.06 75.0- 66.2---
2024-02-28 08:50 pm E 13.6 17.5 6.9 96.3 E30.08- 75.0- 66.2---
2024-02-28 08:40 pm E 13.6 17.5----30.08- 75.0- 66.0---
2024-02-28 08:30 pm E 13.6 17.5----30.07- 74.8- 65.8---
2024-02-28 08:20 pm E 13.6 17.5 7.2 86.4 E30.07- 74.8- 66.2---
2024-02-28 08:10 pm E 13.6 17.5 7.2-6.4 E30.07- 74.7- 66.0---
2024-02-28 08:00 pm E 13.6 17.5----30.07+0.06 74.7- 66.6---
2024-02-28 07:50 pmESE 13.6 17.5 7.2 86.5 E30.06- 74.5- 66.7---
2024-02-28 07:40 pmESE 13.6 17.5----30.06- 74.3- 67.1---
2024-02-28 07:30 pmESE 13.6 17.5----30.06- 74.1- 67.3---
2024-02-28 07:20 pmESE 13.6 17.5 6.9 96.5 E30.06- 74.1- 67.3---
2024-02-28 07:10 pmESE 13.6 17.5 6.9-6.5 E30.06- 74.3- 67.5---
2024-02-28 07:00 pmESE 13.6 17.5----30.06+0.04 74.5- 66.9---
2024-02-28 06:50 pm E 13.6 17.5 7.5 86.4 E30.05- 74.5- 66.2---
2024-02-28 06:40 pm E 11.7 15.5----30.05- 74.7- 66.2---
2024-02-28 06:30 pm E 13.6 17.5----30.04- 74.7- 65.5---
2024-02-28 06:20 pm E 13.6 17.5 7.5 86.5 E30.04- 74.7- 66.0---
2024-02-28 06:10 pm E 13.6 17.5 7.5-6.5 E30.04- 75.0- 66.4---
2024-02-28 06:00 pm E 11.7 15.5----30.03+0.01 74.8- 65.5---
2024-02-28 05:50 pm E 13.6 15.5 7.9 86.5 E30.03- 75.0- 66.4---
2024-02-28 05:40 pm E 11.7 15.5----30.02- 74.8- 66.4---
2024-02-28 05:30 pm E 11.7 15.5----30.02- 74.8- 66.6---
2024-02-28 05:20 pm E 11.7 15.5 7.5 86.5 E30.01- 74.8- 66.2---
2024-02-28 05:10 pm E 13.6 15.5 7.5-6.5 E30.01- 75.0- 65.7---
2024-02-28 05:00 pm E 13.6 17.5----30.01-0.03 75.0- 65.7---
2024-02-28 04:50 pm E 13.6 17.5 7.9 86.6ESE30.01- 74.5- 65.5---
2024-02-28 04:40 pm E 11.7 17.5 7.9-6.6ESE30.01- 73.8- 67.1---
2024-02-28 04:30 pm NE 3.9 7.8----30.01- 73.8- 67.1---
2024-02-28 04:20 pmENE 3.9 7.8 7.5 86.6 E30.01- 73.4- 66.7---
2024-02-28 04:10 pm E 3.9 5.8 7.5-6.6 E30.02- 73.2- 66.9---
2024-02-28 04:00 pm E 3.9 7.8----30.02-0.04 72.9- 67.1---
2024-02-28 03:50 pmESE 3.9 7.8 8.2 86.6 E30.02- 72.5- 67.5---
2024-02-28 03:40 pm SE 5.8 9.7 8.2-6.6 E30.02- 72.3- 67.8---
2024-02-28 03:30 pm SE 7.8 11.7----30.02- 72.7- 68.2---
2024-02-28 03:20 pm SE 9.7 11.7 7.2 96.6 E30.02- 73.8- 68.5---
2024-02-28 03:10 pm E 9.7 13.6 7.2-6.6 E30.02- 73.9- 67.5---
2024-02-28 03:00 pm E 11.7 13.6----30.02-0.06 73.9- 67.5---
2024-02-28 02:50 pm E 11.7 13.6 7.5 96.6 E30.02- 74.3- 66.9---
2024-02-28 02:40 pmENE 9.7 13.6----30.03- 73.8- 64.4---
2024-02-28 02:30 pmENE 11.7 15.5----30.03- 73.2- 64.9---
2024-02-28 02:20 pm E 11.7 15.5 7.2 106.4ENE30.03- 72.9- 65.5---
2024-02-28 02:10 pm E 11.7 15.5 7.2-6.4ENE30.03- 72.5- 66.0---
2024-02-28 02:00 pm E 13.6 17.5----30.04-0.08 72.1- 66.7---
2024-02-28 01:50 pm E 15.5 19.4 7.9 86.9 E30.04- 72.5- 67.8---
2024-02-28 01:40 pmENE 15.5 21.4----30.04- 73.2- 66.7---
2024-02-28 01:20 pmENE 7.8 11.7 7.5 86.7 E30.04- 71.1- 65.5---
2024-02-28 01:10 pm E 5.8 9.7 7.5-6.7 E30.05- 70.3- 66.2---
2024-02-28 01:00 pm E 5.8 7.8----30.06-0.06 70.9- 67.5---
2024-02-28 12:50 pm E 7.8 9.7 7.5 86.7 E30.06- 70.9- 67.5---
2024-02-28 12:40 pmENE 9.7 13.6----30.06- 70.7- 67.5---
2024-02-28 12:30 pmENE 13.6 17.5----30.07- 70.9- 67.3---
2024-02-28 12:20 pmENE 11.7 19.4 7.9 96.8 E30.07- 71.8- 66.0---
2024-02-28 12:10 pm NE 9.7 13.6 7.9-6.8 E30.08- 70.5- 63.9---
2024-02-28 12:00 pm NE 13.6 17.5----30.08-0.03 69.6- 65.8---
2024-02-28 11:50 am NE 13.6 19.4 7.9 86.5 E30.09- 70.5- 68.0---
2024-02-28 11:40 am NE 15.5 17.5----30.10- 70.5- 67.5---
2024-02-28 11:30 amENE 15.5 19.4----30.10- 70.5- 67.3---
2024-02-28 11:20 amENE 15.5 19.4 7.9 86.7 E30.11- 70.9- 67.8---
2024-02-28 11:10 am E 15.5 21.4----30.11- 70.0- 67.6---
2024-02-28 11:00 amENE 15.5 19.4----30.12+0.03 70.7- 68.7---
2024-02-28 10:50 amENE 15.5 17.5 7.9 96.5ENE30.12- 71.2- 68.7---
2024-02-28 10:40 am NE 17.5 21.4----30.12- 71.6- 68.5---
2024-02-28 10:30 am NE 17.5 19.4----30.12- 71.1- 68.0---
2024-02-28 10:20 am NE 17.5 23.3 7.9 96.8ENE30.12- 72.0- 68.2---
2024-02-28 10:10 amENE 9.7 13.6 7.9-6.8ENE30.12- 72.1- 68.0---
2024-02-28 10:00 am NE 9.7 11.7----30.12+0.04 72.0- 67.8---
2024-02-28 09:50 am NE 11.7 15.5 7.9 86.8ESE30.12- 72.0- 67.5---
2024-02-28 09:40 amENE 11.7 15.5----30.12- 72.1- 67.6---
2024-02-28 09:30 amENE 11.7 13.6----30.12- 71.4- 67.1---
2024-02-28 09:20 amENE 13.6 15.5 7.9 86.4 E30.12- 72.0- 68.0---
2024-02-28 09:10 am E 13.6 17.5 7.9-6.4 E30.11- 71.6- 66.9---
2024-02-28 09:00 am E 15.5 17.5----30.11+0.06 71.1- 66.6---
2024-02-28 08:50 am E 17.5 21.4 7.9 86.6 E30.11- 71.2- 67.3---
2024-02-28 08:40 am E 17.5 21.4----30.10- 72.9- 68.7---
2024-02-28 08:30 amENE 11.7 19.4----30.10- 73.6- 67.5---
2024-02-28 08:20 amENE 9.7 13.6 7.9 86.6 E30.10- 73.4- 67.6---
2024-02-28 08:10 am E 11.7 13.6 7.9-6.6 E30.10- 73.8- 67.5---
2024-02-28 08:00 am E 11.7 15.5----30.09+0.05 73.8- 67.3---
2024-02-28 07:50 am E 11.7 15.5 7.5 96.3ENE30.09- 73.8- 67.1---

Detailed Wave Summary
for 51003 as of (7:10 am HAST)
1710 GMT on 02/29/2024:

These wave data are displayed in rounded times.

     

Click on the graph icon in the table below to see a time series plot of the last five days of that observation.

5-day plot - Significant Wave Height Significant Wave Height (WVHT): 5.9 ft
5-day plot - Swell Height Swell Height (SwH): 5.9 ft
5-day plot - Swell Period Swell Period (SwP): 9.1 sec
5-day plot - Swell Direction Swell Direction (SwD): E
5-day plot - Wind Wave Height Wind Wave Height (WWH): 1.6 ft
5-day plot - Wind Wave Period Wind Wave Period (WWP): 3.6 sec
5-day plot - Wind Wave Direction Wind Wave Direction (WWD):ENE
5-day plot - Wave Steepness Wave Steepness (STEEPNESS): AVERAGE
5-day plot - Average Wave Period Average Wave Period (APD): 6.1 sec
Previous observations
TIME
(HAST)
5-day plot - Wave Height
WVHT
ft
5-day plot - Swell Height
SwH
ft
5-day plot - Swell Period
SwP
sec
5-day plot - Swell Direction
SwD
 
5-day plot - Wind Wave Height
WWH
ft
5-day plot - Wind Wave Period
WWP
sec
5-day plot - Wind Wave Direction
WWD
 
5-day plot - Wave Steepness
STEEPNESS
 
5-day plot - Average Wave Period
APD
sec
2024-02-29 06:40 am 6.2 5.9 8.3 E 2.0 4.2 E AVERAGE 6.3
2024-02-29 06:10 am 6.2 5.9 7.7 E 1.6 3.6 E STEEP 6.1
2024-02-29 05:40 am 6.6 6.2 7.7ESE 2.6 5.0 ENE STEEP 6.3
2024-02-29 05:10 am 6.2 5.6 8.3ESE 3.0 4.8 ENE AVERAGE 6.2
2024-02-29 04:40 am 6.9 5.9 8.3 E 3.3 4.5 E AVERAGE 6.2
2024-02-29 04:10 am 6.6 5.9 7.7 E 3.0 4.5 E STEEP 6.2
2024-02-29 03:40 am 6.2 5.2 8.3 E 3.3 4.8 E AVERAGE 5.9
2024-02-29 03:10 am 6.9 5.2 8.3 E 4.3 5.9 ENE AVERAGE 6.1
2024-02-29 02:40 am 6.6 4.3 7.7 E 4.9 6.2 ENE STEEP 6.0
2024-02-29 02:10 am 6.9 4.6 8.3 E 4.9 6.7 E AVERAGE 6.1
2024-02-29 01:40 am 7.2 5.2 8.3 E 4.9 5.9 E STEEP 6.1
2024-02-29 01:10 am 6.6 3.9 9.1 E 5.2 7.7 E STEEP 5.8
2024-02-29 12:40 am 6.9 4.3 8.3 E 5.2 5.6 ENE AVERAGE 6.1
2024-02-29 12:10 am 6.2 3.9 8.3ESE 4.6 6.2 E AVERAGE 5.9
2024-02-28 11:40 pm 6.6 5.2 8.3 E 3.9 6.2 E AVERAGE 6.1
2024-02-28 11:10 pm 6.9 4.9 8.3 E 4.9 7.1 ENE AVERAGE 6.1
2024-02-28 10:40 pm 6.6 4.6 8.3 E 4.6 7.1 E AVERAGE 6.1
2024-02-28 10:10 pm 6.2 4.9 8.3 E 4.3 6.7 E AVERAGE 6.2
2024-02-28 09:40 pm 7.2 5.2 7.7 E 4.9 6.2 E STEEP 6.3
2024-02-28 09:10 pm 7.2 5.9 7.7 E 3.9 4.5 E STEEP 6.3
2024-02-28 08:40 pm 6.9 5.2 9.1 E 4.3 5.6 E AVERAGE 6.3
2024-02-28 08:10 pm 7.2 5.9 8.3 E 3.9 5.6 E STEEP 6.4
2024-02-28 07:40 pm 7.2 5.9 8.3 E 3.9 6.2 E STEEP 6.5
2024-02-28 07:10 pm 6.9 6.2 9.1 E 3.6 5.6 E AVERAGE 6.5
2024-02-28 06:40 pm 7.5 6.6 7.7 E 3.6 5.0 ENE STEEP 6.4
2024-02-28 06:10 pm 7.5 6.6 8.3 E 3.9 6.2 E STEEP 6.5
2024-02-28 05:40 pm 7.9 6.6 8.3 E 3.9 5.9 E STEEP 6.5
2024-02-28 05:10 pm 7.5 6.6 7.7 E 3.9 5.3 ENE STEEP 6.5
2024-02-28 04:40 pm 7.9 7.2 8.3ESE 3.0 3.7 ENE STEEP 6.6
2024-02-28 04:10 pm 7.5 7.5 8.3 E 1.6 3.8 ESE STEEP 6.6
2024-02-28 03:40 pm 8.2 7.9 8.3 E 1.6 3.8 E STEEP 6.6
2024-02-28 03:10 pm 7.2 6.9 9.1 E 2.3 4.5 E AVERAGE 6.6
2024-02-28 02:40 pm 7.5 7.2 9.1 E 2.6 4.5 E AVERAGE 6.6
2024-02-28 02:10 pm 7.2 6.2 10.0ENE 3.6 4.8 ENE AVERAGE 6.4
2024-02-28 01:40 pm 7.9 6.6 8.3 E 4.3 5.0 E STEEP 6.9
2024-02-28 01:10 pm 7.5 7.2 8.3 E 1.6 3.3 ENE STEEP 6.7
2024-02-28 12:40 pm 7.5 6.9 8.3 E 2.3 4.5 ENE STEEP 6.7
2024-02-28 12:10 pm 7.9 7.2 9.1 E 2.6 4.5 ENE AVERAGE 6.8
2024-02-28 11:40 am 7.9 5.9 8.3 E 4.9 5.0 E STEEP 6.5
2024-02-28 11:10 am 7.9 6.6 8.3 E 4.6 6.7 E STEEP 6.7
2024-02-28 10:40 am 7.9 4.6 9.1ENE 6.2 6.2 ENE AVERAGE 6.5
2024-02-28 10:10 am 7.9 7.5 9.1ENE 2.6 4.5 ENE AVERAGE 6.8
2024-02-28 09:40 am 7.9 7.2 8.3ESE 3.3 5.3 ENE STEEP 6.8
2024-02-28 09:10 am 7.9 6.6 8.3 E 4.3 6.2 E STEEP 6.4
2024-02-28 08:40 am 7.9 4.6 13.8 S 6.6 8.3 E STEEP 6.6
2024-02-28 08:10 am 7.9 7.2 8.3 E 3.3 5.0 ENE STEEP 6.6

Plot of wave energy versus frequency (and period)